Starlink 3248

operational
NORAD ID: 49748 Int'l Des: 2021-115 Owner: SPXS Country: US Constellation: starlink
LEOCIRCULAR

关于 Starlink 3248

正在加载描述...

实时位置

正在加载3D地球...

即将过境

高度历史

Altitude vs Time

uPlot chart will show altitude changes over time

两行轨道根数

1 49748U 21115AA 26073.84548196 .00000316 00000-0 37935-4 0 9996
2 49748 53.2165 125.5514 0001315 82.8492 277.2649 15.08838355236321
Epoch: Mar 14, 2026 • Age: 22 hours

当前状态

高度 549.3 km
速度 7.59 km/s
星下点 -29.65°S, 7.31°E
发射日期 Dec 2, 2021
运行时间 4.2 years
类型 internet

技术详情

分类 Payload
质量 290.00 kg
干质量 270.00 kg
总质量 290.00 kg
长度 0.20 m
直径 2.80 m
跨度 9.00 m
形状 Box + pan
制造商 SPXS
平台类型 Starlink
阶段状态 In Orbit
所有者/国家 SPXS/US

大型星座

Loading constellations...